,,,PA_Meas_PMT16A,,PR_Meas_QMR101_102,,RH_Meas_QMH101,,SR_Meas_QMS101,,TA_Meas_QMH101,,GenWind,,GenWind,
date,time,status,PA,status,PR,status,RH,status,SR,status,TA,status,DirAvg,status,SpdAvg,
2012-07-21, 07:18:05,VALID,1005.95,VALID,0,VALID,84.322,VALID,142.804,VALID,26.9926,VALID,359,VALID,0,
2012-07-21, 07:19:05,VALID,1005.96,VALID,0,VALID,84.0092,VALID,139.706,VALID,27.0511,VALID,359,VALID,0,
2012-07-21, 07:20:05,VALID,1005.99,VALID,0,VALID,84.1847,VALID,124.953,VALID,27.129,VALID,359,VALID,0,
2012-07-21, 07:21:05,VALID,1006.06,VALID,0,VALID,83.9253,VALID,132.452,VALID,27.1875,VALID,358,VALID,0,
2012-07-21, 07:22:05,VALID,1006.08,VALID,0,VALID,82.9336,VALID,135.631,VALID,27.248,VALID,358,VALID,0.209375,
2012-07-21, 07:23:05,VALID,1006.14,VALID,0,VALID,82.9183,VALID,139.869,VALID,27.2654,VALID,358,VALID,0.409375,
2012-07-21, 07:24:05,VALID,1006.2,VALID,0,VALID,83.1701,VALID,142.152,VALID,27.2869,VALID,358,VALID,0.530469,
2012-07-21, 07:25:05,VALID,1006.22,VALID,0,VALID,83.4294,VALID,142.07,VALID,27.2675,VALID,359,VALID,0.403516,
2012-07-21, 07:26:05,VALID,1006.2,VALID,0,VALID,84.0245,VALID,138.321,VALID,27.248,VALID,359,VALID,0.472266,
2012-07-21, 07:27:05,VALID,1006.21,VALID,0,VALID,84.4364,VALID,127.561,VALID,27.2285,VALID,359,VALID,0.495703,
2012-07-21, 07:28:05,VALID,1006.22,VALID,0,VALID,84.6653,VALID,124.057,VALID,27.1485,VALID,359,VALID,0.305859,
2012-07-21, 07:29:05,VALID,1006.21,VALID,0,VALID,83.8719,VALID,111.993,VALID,27.1095,VALID,355,VALID,0.676562,
2012-07-21, 07:31:05,INVALID - VALUE NOT AVAILABLE,0,INVALID - VALUE NOT AVAILABLE,0,INVALID - VALUE NOT AVAILABLE,0,INVALID - VALUE NOT AVAILABLE,0,INVALID - VALUE NOT AVAILABLE,0,INVALID,360,INVALID,0,
2012-07-21, 07:32:05,VALID,1006.18,VALID,0,VALID,84.1847,VALID,111.993,VALID,27.0726,VALID,350,VALID,0.0863281,
2012-07-21, 07:33:05,VALID,1006.16,VALID,0,VALID,84.2152,VALID,114.194,VALID,27.1116,VALID,350,VALID,0.0238281,
2012-07-21, 07:34:05,VALID,1006.16,VALID,0,VALID,83.0785,VALID,120.389,VALID,27.17,VALID,350,VALID,0,
2012-07-21, 07:35:05,VALID,1006.21,VALID,0,VALID,83.521,VALID,122.263,VALID,27.2285,VALID,350,VALID,0,
2012-07-21, 07:36:05,VALID,1006.21,VALID,0,VALID,82.5369,VALID,118.188,VALID,27.2675,VALID,350,VALID,0.287109,
2012-07-21, 07:37:05,VALID,1006.25,VALID,0,VALID,82.2622,VALID,128.051,VALID,27.3259,VALID,350,VALID,0.251953,
2012-07-21, 07:38:05,VALID,1006.26,VALID,0,VALID,82.8039,VALID,151.688,VALID,27.3844,VALID,350,VALID,0,
2012-07-21, 07:39:05,VALID,1006.26,VALID,0,VALID,82.0486,VALID,169.783,VALID,27.4039,VALID,350,VALID,0,
2012-07-21, 07:40:05,VALID,1006.26,VALID,0,VALID,81.4154,VALID,171.821,VALID,27.4428,VALID,350,VALID,0,
2012-07-21, 07:41:04,VALID,1006.24,VALID,0,VALID,81.1789,VALID,158.209,VALID,27.4623,VALID,349,VALID,0.324219,
2012-07-21, 07:42:04,VALID,1006.27,VALID,0,VALID,80.8661,VALID,164.893,VALID,27.5208,VALID,351,VALID,0.418359,
2012-07-21, 07:43:04,VALID,1006.28,VALID,0,VALID,81.6138,VALID,169.294,VALID,27.5208,VALID,342,VALID,0.480859,
2012-07-21, 07:44:04,VALID,1006.29,VALID,0,VALID,81.5375,VALID,156.742,VALID,27.5208,VALID,351,VALID,0.607422,
2012-07-21, 07:45:04,VALID,1006.3,VALID,0,VALID,81.2018,VALID,143.456,VALID,27.4818,VALID,347,VALID,0.725391,
2012-07-21, 07:46:04,VALID,1006.34,VALID,0,VALID,82.0105,VALID,155.356,VALID,27.4644,VALID,338,VALID,0.587109,
2012-07-21, 07:47:04,VALID,1006.32,VALID,0,VALID,82.163,VALID,181.765,VALID,27.3844,VALID,3,VALID,0.567578,
2012-07-21, 07:48:04,VALID,1006.31,VALID,0,VALID,81.9113,VALID,211.516,VALID,27.3454,VALID,354,VALID,0.956641,
2012-07-21, 07:49:04,VALID,1006.34,VALID,0,VALID,83.0022,VALID,237.517,VALID,27.3454,VALID,349,VALID,0.400781,
2012-07-21, 07:50:04,VALID,1006.36,VALID,0,VALID,83.0022,VALID,234.175,VALID,27.4449,VALID,347,VALID,0.114063,
2012-07-21, 07:51:04,VALID,1006.4,VALID,0,VALID,81.8121,VALID,212.901,VALID,27.5403,VALID,338,VALID,0.0929687,
2012-07-21, 07:52:04,VALID,1006.38,VALID,0,VALID,80.6602,VALID,246.32,VALID,27.6377,VALID,6,VALID,0.585156,
2012-07-21, 07:53:04,VALID,1006.42,VALID,0,VALID,78.8597,VALID,278.434,VALID,27.7351,VALID,19,VALID,0.116016,
2012-07-21, 07:54:04,VALID,1006.42,VALID,0,VALID,79.8515,VALID,273.707,VALID,27.9495,VALID,19,VALID,0.00429688,
2012-07-21, 07:55:04,VALID,1006.43,VALID,0,VALID,78.2113,VALID,217.873,VALID,28.1249,VALID,359,VALID,0.244141,
2012-07-21, 07:56:04,VALID,1006.47,VALID,0,VALID,77.4102,VALID,189.834,VALID,28.1855,VALID,353,VALID,0.992578,
2012-07-21, 07:57:04,VALID,1006.46,VALID,0,VALID,76.655,VALID,181.846,VALID,28.1855,VALID,323,VALID,0.625781,
2012-07-21, 07:58:04,VALID,1006.45,VALID,0,VALID,76.8762,VALID,210.211,VALID,28.1249,VALID,348,VALID,0.957031,
2012-07-21, 07:59:04,VALID,1006.46,VALID,0,VALID,77.9519,VALID,314.461,VALID,28.0686,VALID,352,VALID,1.3,
2012-07-21, 08:00:04,VALID,1006.46,VALID,0,VALID,78.4783,VALID,372.251,VALID,27.9885,VALID,336,VALID,0.842578,
2012-07-21, 08:01:04,VALID,1006.47,VALID,0,VALID,78.4707,VALID,390.509,VALID,28.0275,VALID,9,VALID,0.528516,
2012-07-21, 08:02:04,VALID,1006.47,VALID,0,VALID,78.4783,VALID,385.863,VALID,28.0859,VALID,1,VALID,0.706641,
2012-07-21, 08:03:04,VALID,1006.46,VALID,0,VALID,77.8146,VALID,421.809,VALID,28.1639,VALID,349,VALID,1.00742,
2012-07-21, 08:04:04,VALID,1006.44,VALID,0,VALID,78.9131,VALID,431.345,VALID,28.2029,VALID,279,VALID,0.168359,
2012-07-21, 08:05:04,VALID,1006.45,VALID,0,VALID,76.7999,VALID,424.498,VALID,28.3978,VALID,311,VALID,0.657422,
2012-07-21, 08:06:04,VALID,1006.44,VALID,0,VALID,76.0752,VALID,442.675,VALID,28.4779,VALID,346,VALID,0.9125,
2012-07-21, 08:07:04,VALID,1006.4,VALID,0,VALID,75.6556,VALID,453.353,VALID,28.4953,VALID,341,VALID,0.944922,
2012-07-21, 08:08:04,VALID,1006.41,VALID,0,VALID,76.0676,VALID,466.394,VALID,28.4953,VALID,348,VALID,0.948047,
2012-07-21, 08:09:04,VALID,1006.42,VALID,0,VALID,76.1744,VALID,463.378,VALID,28.5732,VALID,284,VALID,0.774609,
2012-07-21, 08:10:04,VALID,1006.44,VALID,0,VALID,75.1597,VALID,455.309,VALID,28.7292,VALID,346,VALID,0.732813,
2012-07-21, 08:11:04,VALID,1006.44,VALID,0,VALID,74.4655,VALID,462.563,VALID,28.8851,VALID,358,VALID,0.838281,
2012-07-21, 08:12:04,VALID,1006.48,VALID,0,VALID,74.7173,VALID,478.62,VALID,29.0043,VALID,351,VALID,0.749609,
2012-07-21, 08:13:04,VALID,1006.54,VALID,0,VALID,72.3752,VALID,469.98,VALID,29.0801,VALID,357,VALID,0.468359,
2012-07-21, 08:14:04,VALID,1006.56,VALID,0,VALID,73.9773,VALID,446.343,VALID,29.2578,VALID,358,VALID,0.0519531,
2012-07-21, 08:15:04,VALID,1006.55,VALID,0,VALID,71.2537,VALID,427.188,VALID,29.4333,VALID,289,VALID,0.466016,
2012-07-21, 08:16:04,VALID,1006.55,VALID,0,VALID,71.8717,VALID,364.263,VALID,29.494,VALID,290,VALID,0,
2012-07-21, 08:17:04,VALID,1006.57,VALID,0,VALID,71.8793,VALID,344.457,VALID,29.5893,VALID,352,VALID,0.201953,
2012-07-21, 08:18:04,VALID,1006.55,VALID,0,VALID,72.0929,VALID,371.029,VALID,29.7453,VALID,352,VALID,0.265625,
2012-07-21, 08:19:04,VALID,1006.58,VALID,0,VALID,71.3224,VALID,360.514,VALID,29.8623,VALID,352,VALID,0.00195313,
2012-07-21, 08:20:04,VALID,1006.56,VALID,0,VALID,69.6746,VALID,419.934,VALID,30.0573,VALID,352,VALID,0.00507812,
2012-07-21, 08:21:04,VALID,1006.55,VALID,0,VALID,69.6898,VALID,340.707,VALID,30.2133,VALID,352,VALID,0,
2012-07-21, 08:22:04,VALID,1006.57,VALID,0,VALID,67.8131,VALID,319.596,VALID,30.3499,VALID,343,VALID,0.4625,
2012-07-21, 08:23:04,VALID,1006.55,VALID,0,VALID,67.6605,VALID,313.728,VALID,30.2741,VALID,346,VALID,0.428906,
2012-07-21, 08:24:04,VALID,1006.59,VALID,0,VALID,70.3612,VALID,307.289,VALID,30.0963,VALID,334,VALID,0.25625,
2012-07-21, 08:25:04,VALID,1006.61,VALID,0,VALID,66.8595,VALID,345.924,VALID,30.0573,VALID,333,VALID,0.0128906,
2012-07-21, 08:26:04,VALID,1006.61,VALID,0,VALID,67.9504,VALID,287.482,VALID,29.9403,VALID,291,VALID,0.234375,
2012-07-21, 08:27:04,VALID,1006.65,VALID,0,VALID,69.3847,VALID,273.951,VALID,29.8038,VALID,225,VALID,0.789453,
2012-07-21, 08:28:04,VALID,1006.67,VALID,0,VALID,70.2162,VALID,264.985,VALID,29.4505,VALID,185,VALID,1.67734,
2012-07-21, 08:29:04,VALID,1006.68,VALID,0,VALID,74.0307,VALID,254.878,VALID,28.9068,VALID,207,VALID,1.58281,
2012-07-21, 08:30:04,VALID,1006.68,VALID,0,VALID,74.6257,VALID,244.934,VALID,28.5364,VALID,174,VALID,1.80391,
2012-07-21, 08:31:04,VALID,1006.69,VALID,0,VALID,76.51,VALID,233.605,VALID,28.2245,VALID,199,VALID,1.28711,
2012-07-21, 08:32:04,VALID,1006.7,VALID,0,VALID,77.601,VALID,225.372,VALID,28.0296,VALID,182,VALID,1.01875,
2012-07-21, 08:33:04,VALID,1006.7,VALID,0,VALID,77.929,VALID,219.83,VALID,27.8716,VALID,211,VALID,0.970703,
2012-07-21, 08:34:04,VALID,1006.71,VALID,0,VALID,78.9437,VALID,223.008,VALID,27.7546,VALID,179,VALID,1.45273,
2012-07-21, 08:35:04,VALID,1006.71,VALID,0,VALID,78.5241,VALID,233.523,VALID,27.6983,VALID,194,VALID,0.905469,
2012-07-21, 08:36:04,VALID,1006.68,VALID,0,VALID,78.9589,VALID,228.714,VALID,27.6593,VALID,175,VALID,0.801953,
2012-07-21, 08:37:04,VALID,1006.68,VALID,0,VALID,78.6919,VALID,247.054,VALID,27.6572,VALID,194,VALID,0.885156,
2012-07-21, 08:38:04,VALID,1006.69,VALID,0,VALID,78.6919,VALID,265.556,VALID,27.6593,VALID,220,VALID,1.30117,
2012-07-21, 08:39:04,VALID,1006.69,VALID,0,VALID,79.0276,VALID,325.058,VALID,27.6593,VALID,199,VALID,1.22109,
2012-07-21, 08:40:04,VALID,1006.67,VALID,0,VALID,79.4166,VALID,395.97,VALID,27.6962,VALID,198,VALID,1.10391,
2012-07-21, 08:41:04,VALID,1006.66,VALID,0,VALID,77.9672,VALID,420.015,VALID,27.7351,VALID,248,VALID,0.674219,
2012-07-21, 08:42:04,VALID,1006.7,VALID,0,VALID,77.2806,VALID,406.077,VALID,27.7957,VALID,228,VALID,1.29102,
2012-07-21, 08:43:04,VALID,1006.69,VALID,0,VALID,78.135,VALID,447.321,VALID,27.7957,VALID,225,VALID,1.2957,
2012-07-21, 08:44:04,VALID,1006.67,VALID,0,VALID,78.2418,VALID,476.664,VALID,27.8131,VALID,192,VALID,0.787891,
2012-07-21, 08:45:04,VALID,1006.68,VALID,0,VALID,77.9214,VALID,477.398,VALID,27.8716,VALID,229,VALID,1.5293,
2012-07-21, 08:46:04,VALID,1006.67,VALID,0,VALID,75.7243,VALID,329.541,VALID,27.9711,VALID,174,VALID,1.10195,
2012-07-21, 08:47:04,VALID,1006.69,VALID,0,VALID,75.8234,VALID,311.201,VALID,27.8716,VALID,211,VALID,1.58555,
2012-07-21, 08:48:04,VALID,1006.7,VALID,0,VALID,76.8305,VALID,343.642,VALID,27.7741,VALID,231,VALID,1.725,
2012-07-21, 08:49:04,VALID,1006.68,VALID,0,VALID,77.6315,VALID,294.818,VALID,27.7741,VALID,235,VALID,1.05703,
2012-07-21, 08:50:04,VALID,1006.7,VALID,0,VALID,75.9302,VALID,314.054,VALID,27.8131,VALID,223,VALID,1.36563,
2012-07-21, 08:51:04,VALID,1006.67,VALID,0,VALID,76.4032,VALID,357.58,VALID,27.8347,VALID,168,VALID,0.775,
2012-07-21, 08:52:04,VALID,1006.64,VALID,0,VALID,77.3568,VALID,312.179,VALID,27.8716,VALID,202,VALID,0.734375,
2012-07-21, 08:53:04,VALID,1006.61,VALID,0,VALID,75.8768,VALID,290.172,VALID,27.8542,VALID,187,VALID,1.30625,
2012-07-21, 08:54:04,VALID,1006.6,VALID,0,VALID,75.9455,VALID,379.995,VALID,27.8326,VALID,207,VALID,0.687109,
2012-07-21, 08:55:04,VALID,1006.6,VALID,0,VALID,76.327,VALID,610.013,VALID,27.9127,VALID,220,VALID,0.935156,
2012-07-21, 08:56:04,VALID,1006.59,VALID,0,VALID,76.0142,VALID,437.458,VALID,28.0101,VALID,206,VALID,1.31562,
2012-07-21, 08:57:04,VALID,1006.61,VALID,0,VALID,75.0606,VALID,586.783,VALID,28.0881,VALID,196,VALID,1.22109,
2012-07-21, 08:58:04,VALID,1006.56,VALID,0,VALID,74.6867,VALID,726.978,VALID,28.0665,VALID,207,VALID,1.20039,
2012-07-21, 08:59:04,VALID,1006.58,VALID,0,VALID,74.0612,VALID,739.367,VALID,28.2245,VALID,187,VALID,1.90586,
2012-07-21, 09:00:04,VALID,1006.54,VALID,0,VALID,72.5659,VALID,748.252,VALID,28.322,VALID,228,VALID,1.00234,
2012-07-21, 09:01:04,VALID,1006.53,VALID,0,VALID,73.7179,VALID,749.393,VALID,28.4584,VALID,220,VALID,1.13477,
2012-07-21, 09:02:04,VALID,1006.51,VALID,0,VALID,73.2373,VALID,751.594,VALID,28.5559,VALID,182,VALID,2.00508,
2012-07-21, 09:03:04,VALID,1006.52,VALID,0,VALID,74.2214,VALID,754.202,VALID,28.5364,VALID,184,VALID,1.88828,
2012-07-21, 09:04:04,VALID,1006.53,VALID,0,VALID,74.1375,VALID,723.473,VALID,28.6729,VALID,174,VALID,1.65703,
2012-07-21, 09:05:04,VALID,1006.55,VALID,0,VALID,72.6727,VALID,744.665,VALID,28.8093,VALID,194,VALID,1.93594,
2012-07-21, 09:06:04,VALID,1006.54,VALID,0,VALID,72.7414,VALID,735.944,VALID,28.7335,VALID,189,VALID,2.25078,
2012-07-21, 09:07:04,VALID,1006.57,VALID,0,VALID,74.1985,VALID,732.684,VALID,28.7335,VALID,191,VALID,1.24883,
2012-07-21, 09:08:04,VALID,1006.59,VALID,0,VALID,73.016,VALID,728.445,VALID,28.6361,VALID,195,VALID,1.5625,
2012-07-21, 09:09:04,VALID,1006.56,VALID,0,VALID,75.0224,VALID,721.598,VALID,28.4,VALID,177,VALID,2.1918,
2012-07-21, 09:10:04,VALID,1006.54,VALID,0,VALID,74.9232,VALID,733.336,VALID,28.4,VALID,171,VALID,1.28711,
2012-07-21, 09:11:04,VALID,1006.56,VALID,0,VALID,74.3282,VALID,220.074,VALID,28.5169,VALID,217,VALID,2.2543,
2012-07-21, 09:12:04,VALID,1006.58,VALID,0,VALID,73.5043,VALID,174.674,VALID,28.3415,VALID,171,VALID,2.01953,
2012-07-21, 09:13:04,VALID,1006.56,VALID,0,VALID,74.6867,VALID,165.952,VALID,28.1076,VALID,148,VALID,2.97813,
2012-07-21, 09:14:04,VALID,1006.59,VALID,0,VALID,75.6785,VALID,212.331,VALID,27.9127,VALID,177,VALID,1.78555,
2012-07-21, 09:15:04,VALID,1006.58,VALID,0,VALID,77.0898,VALID,264.496,VALID,27.7762,VALID,197,VALID,1.06562,
2012-07-21, 09:16:04,VALID,1006.57,VALID,0,VALID,77.1127,VALID,702.933,VALID,27.7157,VALID,198,VALID,1.10547,
2012-07-21, 09:17:04,VALID,1006.56,VALID,0,VALID,76.8381,VALID,694.945,VALID,27.7762,VALID,206,VALID,1.10938,
2012-07-21, 09:18:04,VALID,1006.61,VALID,0,VALID,77.128,VALID,688.098,VALID,27.9495,VALID,175,VALID,0.841406,
2012-07-21, 09:19:04,VALID,1006.6,VALID,0,VALID,73.634,VALID,683.371,VALID,28.1639,VALID,209,VALID,1.76953,
2012-07-21, 09:20:04,VALID,1006.61,VALID,0,VALID,73.5958,VALID,678.969,VALID,28.2809,VALID,205,VALID,1.71914,
2012-07-21, 09:21:04,VALID,1006.63,VALID,0,VALID,72.154,VALID,674.323,VALID,28.3393,VALID,208,VALID,1.60977,
2012-07-21, 09:22:04,VALID,1006.64,VALID,0,VALID,72.8863,VALID,670.818,VALID,28.3003,VALID,198,VALID,1.31719,
2012-07-21, 09:23:04,VALID,1006.64,VALID,0,VALID,74.0764,VALID,670.248,VALID,28.283,VALID,190,VALID,1.67305,
2012-07-21, 09:24:04,VALID,1006.66,VALID,0,VALID,73.3975,VALID,668.862,VALID,28.2614,VALID,192,VALID,1.59883,
2012-07-21, 09:25:04,VALID,1006.64,VALID,0,VALID,73.3212,VALID,667.803,VALID,28.3393,VALID,228,VALID,0.939062,
2012-07-21, 09:26:04,VALID,1006.59,VALID,0,VALID,75.0911,VALID,668.129,VALID,28.4368,VALID,154,VALID,0.828516,
2012-07-21, 09:27:04,VALID,1006.59,VALID,0,VALID,72.2913,VALID,666.58,VALID,28.4779,VALID,137,VALID,1.275,
2012-07-21, 09:28:04,VALID,1006.57,VALID,0,VALID,73.1533,VALID,663.075,VALID,28.6339,VALID,185,VALID,1.18906,
2012-07-21, 09:29:04,VALID,1006.56,VALID,0,VALID,71.9785,VALID,664.705,VALID,28.6339,VALID,135,VALID,1.44922,
2012-07-21, 09:30:04,VALID,1006.53,VALID,0,VALID,75.1674,VALID,674.323,VALID,28.6902,VALID,202,VALID,1.4668,
2012-07-21, 09:31:04,VALID,1006.54,VALID,0,VALID,71.5055,VALID,678.399,VALID,28.8267,VALID,138,VALID,1.32617,
2012-07-21, 09:32:04,VALID,1006.51,VALID,0,VALID,75.709,VALID,681.659,VALID,28.9458,VALID,108,VALID,0.758984,
2012-07-21, 09:33:04,VALID,1006.5,VALID,0,VALID,71.6123,VALID,679.947,VALID,29.2578,VALID,302,VALID,0.497656,
2012-07-21, 09:34:04,VALID,1006.46,VALID,0,VALID,69.11,VALID,665.846,VALID,29.5308,VALID,293,VALID,1.60273,
2012-07-21, 09:35:04,VALID,1006.48,VALID,0,VALID,69.9339,VALID,652.56,VALID,29.6478,VALID,253,VALID,0.672656,
2012-07-21, 09:36:04,VALID,1006.44,VALID,0,VALID,69.3541,VALID,660.956,VALID,29.7063,VALID,223,VALID,1.02422,
2012-07-21, 09:37:04,VALID,1006.43,VALID,0,VALID,67.9276,VALID,592.325,VALID,29.8015,VALID,296,VALID,0.658984,
2012-07-21, 09:38:04,VALID,1006.45,VALID,0,VALID,68.5607,VALID,590.94,VALID,29.767,VALID,280,VALID,1.00664,
2012-07-21, 09:39:04,VALID,1006.48,VALID,0,VALID,69.316,VALID,657.451,VALID,29.7258,VALID,203,VALID,1.14414,
2012-07-21, 09:40:04,VALID,1006.46,VALID,0,VALID,68.9117,VALID,653.049,VALID,29.6283,VALID,193,VALID,1.27109,
2012-07-21, 09:41:04,VALID,1006.43,VALID,0,VALID,71.9861,VALID,697.227,VALID,29.4723,VALID,186,VALID,0.733594,
2012-07-21, 09:42:04,VALID,1006.47,VALID,0,VALID,71.1775,VALID,714.263,VALID,29.4723,VALID,157,VALID,0.319922,
2012-07-21, 09:43:04,VALID,1006.46,VALID,0,VALID,68.3014,VALID,732.928,VALID,29.4918,VALID,157,VALID,1.55078,
2012-07-21, 09:44:04,VALID,1006.47,VALID,0,VALID,69.1177,VALID,766.673,VALID,29.2773,VALID,134,VALID,1.05977,
2012-07-21, 09:45:04,VALID,1006.44,VALID,0,VALID,72.0853,VALID,774.824,VALID,29.3965,VALID,278,VALID,0.817578,
2012-07-21, 09:46:04,VALID,1006.45,VALID,0,VALID,71.0783,VALID,328.562,VALID,29.6305,VALID,255,VALID,0.757422,
2012-07-21, 09:47:04,VALID,1006.45,VALID,0,VALID,69.9263,VALID,240.044,VALID,29.7648,VALID,253,VALID,0.599609,
2012-07-21, 09:48:04,VALID,1006.44,VALID,0,VALID,70.674,VALID,736.596,VALID,29.845,VALID,338,VALID,0.71875,
2012-07-21, 09:49:04,VALID,1006.42,VALID,0,VALID,67.4469,VALID,623.054,VALID,29.9621,VALID,350,VALID,1.38984,
2012-07-21, 09:50:04,VALID,1006.38,VALID,0,VALID,68.5455,VALID,285.2,VALID,30.0206,VALID,288,VALID,0.758984,
2012-07-21, 09:51:04,VALID,1006.39,VALID,0,VALID,66.4475,VALID,775.313,VALID,30.0986,VALID,329,VALID,0.693359,
2012-07-21, 09:52:04,VALID,1006.35,VALID,0,VALID,67.63,VALID,729.179,VALID,30.1743,VALID,322,VALID,0.460547,
2012-07-21, 09:53:04,VALID,1006.36,VALID,0,VALID,68.2709,VALID,737.411,VALID,30.2133,VALID,278,VALID,0.891797,
2012-07-21, 09:54:04,VALID,1006.34,VALID,0,VALID,71.1927,VALID,751.268,VALID,30.2328,VALID,208,VALID,0.332031,
2012-07-21, 09:55:04,VALID,1006.35,VALID,0,VALID,70.1247,VALID,746.459,VALID,30.5082,VALID,258,VALID,0.488672,
2012-07-21, 09:56:04,VALID,1006.31,VALID,0,VALID,64.3267,VALID,709.372,VALID,30.6448,VALID,225,VALID,1.11641,
2012-07-21, 09:57:04,VALID,1006.3,VALID,0,VALID,65.3871,VALID,713.448,VALID,30.5667,VALID,227,VALID,0.709766,
2012-07-21, 09:58:04,VALID,1006.29,VALID,0,VALID,66.9968,VALID,727.06,VALID,30.4474,VALID,196,VALID,1.28828,
2012-07-21, 09:59:04,VALID,1006.25,VALID,0,VALID,65.822,VALID,750.616,VALID,30.3327,VALID,203,VALID,0.7625,
2012-07-21, 10:00:04,VALID,1006.21,VALID,0,VALID,65.9212,VALID,774.253,VALID,30.1571,VALID,185,VALID,1.55156,
2012-07-21, 10:01:04,VALID,1006.21,VALID,0,VALID,68.0649,VALID,778.492,VALID,29.8818,VALID,186,VALID,2.05156,
2012-07-21, 10:02:04,VALID,1006.19,VALID,0,VALID,70.5061,VALID,282.754,VALID,29.7453,VALID,188,VALID,1.41289,
2012-07-21, 10:03:04,VALID,1006.17,VALID,0,VALID,66.7908,VALID,267.92,VALID,29.6673,VALID,214,VALID,1.48555,
2012-07-21, 10:04:04,VALID,1006.15,VALID,0,VALID,67.9657,VALID,416.348,VALID,29.455,VALID,187,VALID,0.870313,
2012-07-21, 10:05:04,VALID,1006.14,VALID,0,VALID,70.674,VALID,568.199,VALID,29.299,VALID,224,VALID,1.37422,
2012-07-21, 10:06:04,VALID,1006.16,VALID,0,VALID,70.2849,VALID,408.93,VALID,29.1235,VALID,189,VALID,1.60039,
2012-07-21, 10:07:04,VALID,1006.11,VALID,0,VALID,71.5742,VALID,302.48,VALID,29.0065,VALID,204,VALID,1.43906,
2012-07-21, 10:08:04,VALID,1006.1,VALID,0,VALID,71.063,VALID,245.505,VALID,29.0065,VALID,219,VALID,1.53203,
2012-07-21, 10:09:04,VALID,1006.1,VALID,0,VALID,70.2086,VALID,184.292,VALID,28.9892,VALID,196,VALID,1.33945,
2012-07-21, 10:10:04,VALID,1006.07,VALID,0,VALID,72.1158,VALID,271.832,VALID,28.8093,VALID,195,VALID,1.02852,
2012-07-21, 10:11:04,VALID,1006.07,VALID,0,VALID,72.1463,VALID,474.219,VALID,28.6924,VALID,177,VALID,1.58008,
2012-07-21, 10:12:04,VALID,1006.08,VALID,0,VALID,71.1469,VALID,529.074,VALID,28.6556,VALID,183,VALID,1.63633,
2012-07-21, 10:13:04,VALID,1006.09,VALID,0,VALID,73.2678,VALID,611.887,VALID,28.7335,VALID,186,VALID,1.16836,
2012-07-21, 10:14:04,VALID,1006.05,VALID,0,VALID,72.3676,VALID,659.815,VALID,28.8895,VALID,203,VALID,0.839844,
2012-07-21, 10:15:04,VALID,1006.05,VALID,0,VALID,71.6962,VALID,756.484,VALID,29.143,VALID,243,VALID,0.780859,
2012-07-21, 10:16:04,VALID,1006.01,VALID,0,VALID,73.0236,VALID,700.325,VALID,29.416,VALID,207,VALID,0.835156,
2012-07-21, 10:17:04,VALID,1006.01,VALID,0,VALID,69.7051,VALID,769.281,VALID,29.6088,VALID,223,VALID,1.21328,
2012-07-21, 10:18:04,VALID,1006.01,VALID,0,VALID,69.2473,VALID,766.51,VALID,29.7453,VALID,273,VALID,0.717969,
2012-07-21, 10:19:04,VALID,1005.97,VALID,0,VALID,68.2632,VALID,797.402,VALID,29.8428,VALID,211,VALID,0.905859,
2012-07-21, 10:20:04,VALID,1005.99,VALID,0,VALID,66.9663,VALID,791.533,VALID,29.9013,VALID,233,VALID,2.04375,
2012-07-21, 10:21:04,VALID,1006,VALID,0,VALID,69.4152,VALID,776.046,VALID,29.9621,VALID,242,VALID,0.955078,
2012-07-21, 10:22:04,VALID,1006,VALID,0,VALID,66.6001,VALID,775.231,VALID,30.0768,VALID,203,VALID,1.54062,
2012-07-21, 10:23:04,VALID,1005.99,VALID,0,VALID,69.7432,VALID,795.282,VALID,29.9988,VALID,190,VALID,1.51211,
2012-07-21, 10:24:04,VALID,1005.96,VALID,0,VALID,71.3758,VALID,794.875,VALID,29.9793,VALID,199,VALID,0.755078,
2012-07-21, 10:25:04,VALID,1005.9,VALID,0,VALID,68.2251,VALID,774.009,VALID,30.1158,VALID,216,VALID,1.31992,
2012-07-21, 10:26:04,VALID,1005.91,VALID,0,VALID,68.5455,VALID,781.67,VALID,30.0768,VALID,183,VALID,2.46875,
2012-07-21, 10:27:04,VALID,1005.87,VALID,0,VALID,69.5296,VALID,796.994,VALID,29.9208,VALID,174,VALID,1.46563,
2012-07-21, 10:28:04,VALID,1005.87,VALID,0,VALID,70.6358,VALID,813.214,VALID,29.9208,VALID,194,VALID,1.32578,
2012-07-21, 10:29:04,VALID,1005.83,VALID,0,VALID,70.3612,VALID,823.729,VALID,29.9598,VALID,190,VALID,1.67188,
2012-07-21, 10:30:04,VALID,1005.84,VALID,0,VALID,68.9269,VALID,814.6,VALID,30.1376,VALID,278,VALID,0.847266,
2012-07-21, 10:31:04,VALID,1005.84,VALID,0,VALID,67.4927,VALID,679.132,VALID,30.2936,VALID,205,VALID,2.14453,
2012-07-21, 10:32:04,VALID,1005.82,VALID,0,VALID,66.15,VALID,262.459,VALID,30.1376,VALID,221,VALID,1.76406,
2012-07-21, 10:33:04,VALID,1005.79,VALID,0,VALID,69.6822,VALID,255.449,VALID,29.8623,VALID,242,VALID,0.69375,
2012-07-21, 10:34:04,VALID,1005.78,VALID,0,VALID,68.0038,VALID,431.345,VALID,29.7843,VALID,346,VALID,1.11445,
2012-07-21, 10:35:04,VALID,1005.76,VALID,0,VALID,70.2544,VALID,816.312,VALID,29.8623,VALID,213,VALID,1.47969,
2012-07-21, 10:36:04,VALID,1005.73,VALID,0,VALID,72.276,VALID,834.488,VALID,29.8428,VALID,243,VALID,0.767969,
2012-07-21, 10:37:04,VALID,1005.72,VALID,0,VALID,70.4527,VALID,823.159,VALID,29.9598,VALID,273,VALID,0.469141,
2012-07-21, 10:38:04,VALID,1005.7,VALID,0,VALID,69.2397,VALID,814.682,VALID,30.1353,VALID,233,VALID,0.728125,
2012-07-21, 10:39:04,VALID,1005.67,VALID,0,VALID,67.9657,VALID,815.741,VALID,30.2523,VALID,234,VALID,1.39609,
2012-07-21, 10:40:04,VALID,1005.61,VALID,0,VALID,67.1876,VALID,821.773,VALID,30.3694,VALID,260,VALID,1.20273,
2012-07-21, 10:41:04,VALID,1005.59,VALID,0,VALID,67.3554,VALID,825.522,VALID,30.5472,VALID,176,VALID,0.569531,
2012-07-21, 10:42:04,VALID,1005.54,VALID,0,VALID,65.2956,VALID,830.902,VALID,30.5449,VALID,158,VALID,1.02891,
2012-07-21, 10:43:04,VALID,1005.5,VALID,0,VALID,65.2803,VALID,840.52,VALID,30.5059,VALID,170,VALID,2.69922,
2012-07-21, 10:44:04,VALID,1005.51,VALID,0,VALID,67.3401,VALID,856.088,VALID,30.3717,VALID,185,VALID,2.54609,
2012-07-21, 10:45:04,VALID,1005.45,VALID,0,VALID,67.6682,VALID,920.073,VALID,30.2133,VALID,198,VALID,2.63555,
2012-07-21, 10:46:04,VALID,1005.46,VALID,0,VALID,70.7731,VALID,275.011,VALID,30.1525,VALID,187,VALID,1.53086,
2012-07-21, 10:47:04,VALID,1005.44,VALID,0,VALID,70.735,VALID,235.072,VALID,30.0745,VALID,189,VALID,1.53359,
2012-07-21, 10:48:04,VALID,1005.44,VALID,0,VALID,68.7667,VALID,270.202,VALID,29.9185,VALID,183,VALID,1.71875,
2012-07-21, 10:49:04,VALID,1005.44,VALID,0,VALID,69.0337,VALID,227.98,VALID,29.821,VALID,231,VALID,1.49336,
2012-07-21, 10:50:04,VALID,1005.43,VALID,0,VALID,70.1018,VALID,217.384,VALID,29.7648,VALID,224,VALID,1.77734,
2012-07-21, 10:51:04,VALID,1005.41,VALID,0,VALID,70.323,VALID,243.549,VALID,29.548,VALID,205,VALID,1.78203,
2012-07-21, 10:52:04,VALID,1005.37,VALID,0,VALID,71.2309,VALID,754.202,VALID,29.3335,VALID,218,VALID,1.12852,